FENGYUN 1C DEB, 30915

Orbit data source: Space-Track

FENGYUN 1C DEB, 30915 is space debris in SSO originally from a launch on Mon, 10 May 1999 UTC launched from the Taiyaun Space Center, China (TSC). Fengyun 1C debris stems from the Chinese weather satellite Fengyun-1C, which was intentionally destroyed by a Chinese anti-satellite missile in 2007. This event dramatically increased the amount of space debris, with thousands of trackable fragments posing hazards to satellites and human spaceflight. The Fengyun 1C debris cloud has become a focal point in discussions about space sustainability and the need for international regulations to prevent the creation of new debris.

Loading next visibility...
Identifier
30915, 1999-025AZD
Orbit
SSO
Country
Flag of CNCN / PRC
Related business
Manufacturer
Unknown
Mission
Spacecraft
Bus & Motor
Unknown
Mass
Unknown
Launch date (UTC)
1999-05-10 (27 years ago)
Launch vehicle
Unknown
Launch site
Taiyaun Space Center, China (TSC)
Object type
Payload
Rocket body
Debris
Shape & HBR
Unknown shape, 0.1 m
Radar Cross Section
Small (<0.1 m²)

Expand to show TLE details & history
Last TLE update: 1 day ago

TLE from 1 day ago
0 FENGYUN 1C DEB
1 30915U 99025AZD 26171.17619215  .00002100  00000-0  88159-3 0  9999
2 30915  98.9331 256.0050 0048631 340.1490  19.7796 14.26395367992122
Epoch: 2026-06-20T04:13Z
TLE epoch observation values (Epoch: 2026-06-20T04:13:43.001Z)
Latitude
-0.00003°
Longitude
-75.81874°
Altitude
773.868 km
Speed
7.484 km/s
True Right ascension
17h 04m 01s
True Declination
0° 00' 00"
Sunlit
Object was in full shadow at epoch
Visualization orbit readout
Latitude
Unknown
Longitude
Unknown
Altitude
Unknown
Speed
Unknown
Apparent Right ascension
Unknown
Apparent Declination
Unknown
Sunlit
N/A
Visualization observer readout
Local Sidereal Time
22:43:03
Azimuth
Unknown
Elevation
Unknown
Doppler factor
Unknown
Orbital elements
Apogee altitude
835.879 km
Perigee altitude
766.053 km
Semi-major axis
7,179.103 km
Eccentricity
0.00486
Inclination
98.9331°
RAAN
256.005°
Arg. of periapsis
340.149°
True anomaly
19.96927°
Mean anomaly
19.7796°
Eccentric anomaly
19.87432°
Mean motion
3.56811 °/min
Orbital period
100.89 mins
BSTAR
0.00088159
Loading maneuver chart data...
Computing Atmospheric mass density...

Documentation

Showing up to 5 results
|